When you browse on this site, cookies collect data to enhance your experience and personalize the content and advertising you see.
Visit our Privacy Policy to learn more. By continuing to use the site, you agree to this use of cookies and data.
  • în România
  • Lista ţărilor
  • Pe 7 zile
  • Temperatura apei
  • Meteo pe hartă
  • Widget-uri
  • user-avatar
    Intrare

    Meteo pe oră la Ali Bayramli

    Astăzi, 16 Septembrie, Luni

    Timp Temperatura Precipitaţii Vânt Presiune Umiditate
    00:00 +20°C° 0 mm 0 m/s 762 mmHg 74%
    01:00 +22°C° 0.1 mm 1 m/s 762 mmHg 74%
    02:00 +22°C° 0.1 mm 1 m/s 762 mmHg 74%
    03:00 +22°C° 0 mm 1 m/s 762 mmHg 80%
    04:00 +22°C° 0.5 mm 1 m/s 762 mmHg 81%
    05:00 +22°C° 0.5 mm 1 m/s 763 mmHg 83%
    06:00 +22°C° 0.5 mm 1 m/s 763 mmHg 84%
    07:00 +23°C° 0.4 mm 1 m/s 763 mmHg 77%
    08:00 +24°C° 0.4 mm 2 m/s 763 mmHg 70%
    09:00 +26°C° 0.4 mm 2 m/s 763 mmHg 64%
    10:00 +27°C° 0 mm 3 m/s 762 mmHg 59%
    11:00 +28°C° 0 mm 4 m/s 761 mmHg 55%
    12:00 +29°C° 0 mm 4 m/s 761 mmHg 50%
    13:00 +29°C° 0 mm 5 m/s 760 mmHg 49%
    14:00 +29°C° 0 mm 5 m/s 759 mmHg 49%
    15:00 +29°C° 0 mm 6 m/s 759 mmHg 48%
    16:00 +28°C° 0 mm 5 m/s 758 mmHg 51%
    17:00 +26°C° 0 mm 5 m/s 758 mmHg 53%
    18:00 +25°C° 0 mm 4 m/s 758 mmHg 56%
    19:00 +24°C° 0 mm 3 m/s 758 mmHg 60%
    20:00 +24°C° 0 mm 2 m/s 758 mmHg 63%
    21:00 +23°C° 0 mm 1 m/s 758 mmHg 67%
    22:00 +23°C° 0 mm 1 m/s 757 mmHg 69%
    23:00 +22°C° 0 mm 1 m/s 757 mmHg 71%

    Mâine, 17 Septembrie, Marţi

    Timp Temperatura Precipitaţii Vânt Presiune Umiditate
    00:00 +22°C° 0 mm 1 m/s 756 mmHg 73%
    01:00 +22°C° 0 mm 1 m/s 756 mmHg 74%
    02:00 +21°C° 0 mm 2 m/s 756 mmHg 75%
    03:00 +20°C° 0 mm 2 m/s 756 mmHg 76%
    04:00 +20°C° 0 mm 2 m/s 756 mmHg 78%
    05:00 +20°C° 0 mm 2 m/s 756 mmHg 79%
    06:00 +20°C° 0 mm 2 m/s 756 mmHg 81%
    07:00 +23°C° 0 mm 2 m/s 756 mmHg 73%
    08:00 +25°C° 0 mm 2 m/s 756 mmHg 65%
    09:00 +27°C° 0 mm 2 m/s 756 mmHg 57%
    10:00 +29°C° 0 mm 2 m/s 756 mmHg 51%
    11:00 +30°C° 0 mm 2 m/s 755 mmHg 45%
    12:00 +32°C° 0 mm 2 m/s 755 mmHg 38%
    13:00 +34°C° 0 mm 2 m/s 754 mmHg 36%
    14:00 +35°C° 0 mm 2 m/s 754 mmHg 34%
    15:00 +35°C° 0 mm 1 m/s 753 mmHg 31%
    16:00 +33°C° 0 mm 3 m/s 753 mmHg 40%
    17:00 +30°C° 0 mm 5 m/s 753 mmHg 48%
    18:00 +27°C° 0 mm 7 m/s 753 mmHg 56%
    19:00 +27°C° 0 mm 6 m/s 754 mmHg 57%
    20:00 +26°C° 0 mm 6 m/s 754 mmHg 58%
    21:00 +26°C° 0 mm 5 m/s 755 mmHg 60%
    22:00 +25°C° 0 mm 4 m/s 755 mmHg 62%
    23:00 +25°C° 0 mm 4 m/s 755 mmHg 63%

    Poimâine, 18 Septembrie, Miercuri

    Timp Temperatura Precipitaţii Vânt Presiune Umiditate
    00:00 +24°C° 0 mm 3 m/s 756 mmHg 65%
    01:00 +24°C° 0 mm 3 m/s 756 mmHg 67%
    02:00 +24°C° 0 mm 3 m/s 756 mmHg 70%
    03:00 +22°C° 0 mm 3 m/s 756 mmHg 72%
    04:00 +23°C° 0 mm 2 m/s 757 mmHg 73%
    05:00 +23°C° 0 mm 1 m/s 757 mmHg 74%
    06:00 +21°C° 0 mm 0 m/s 758 mmHg 75%
    07:00 +24°C° 0 mm 1 m/s 758 mmHg 67%
    08:00 +26°C° 0 mm 1 m/s 759 mmHg 59%
    09:00 +28°C° 0 mm 1 m/s 759 mmHg 51%
    10:00 +29°C° 0 mm 2 m/s 759 mmHg 47%
    11:00 +30°C° 0 mm 2 m/s 759 mmHg 43%
    12:00 +31°C° 0 mm 3 m/s 759 mmHg 39%
    13:00 +32°C° 0 mm 4 m/s 759 mmHg 40%
    14:00 +32°C° 0 mm 5 m/s 758 mmHg 42%
    15:00 +32°C° 0 mm 7 m/s 758 mmHg 44%
    16:00 +29°C° 0 mm 7 m/s 758 mmHg 51%
    17:00 +28°C° 0 mm 6 m/s 758 mmHg 57%
    18:00 +26°C° 0 mm 6 m/s 758 mmHg 64%
    19:00 +26°C° 0 mm 6 m/s 758 mmHg 67%
    20:00 +25°C° 0 mm 5 m/s 758 mmHg 70%
    21:00 +25°C° 0 mm 4 m/s 759 mmHg 72%
    22:00 +23°C° 0 mm 4 m/s 758 mmHg 74%
    23:00 +24°C° 0 mm 3 m/s 758 mmHg 75%

    19 Septembrie, Joi

    Timp Temperatura Precipitaţii Vânt Presiune Umiditate
    00:00 +23°C° 0 mm 2 m/s 757 mmHg 76%
    01:00 +23°C° 0 mm 2 m/s 757 mmHg 78%
    02:00 +22°C° 0 mm 1 m/s 757 mmHg 79%
    03:00 +22°C° 0 mm 1 m/s 757 mmHg 80%
    04:00 +22°C° 0 mm 1 m/s 757 mmHg 78%
    05:00 +22°C° 0 mm 1 m/s 756 mmHg 77%
    06:00 +21°C° 0 mm 2 m/s 756 mmHg 76%
    07:00 +24°C° 0 mm 2 m/s 757 mmHg 66%
    08:00 +26°C° 0 mm 3 m/s 757 mmHg 57%
    09:00 +28°C° 0 mm 3 m/s 757 mmHg 48%
    10:00 +30°C° 0 mm 3 m/s 758 mmHg 41%
    11:00 +33°C° 0 mm 3 m/s 758 mmHg 34%
    12:00 +35°C° 0 mm 3 m/s 758 mmHg 27%
    13:00 +35°C° 0 mm 4 m/s 758 mmHg 28%
    14:00 +35°C° 0 mm 5 m/s 758 mmHg 29%
    15:00 +34°C° 0 mm 6 m/s 758 mmHg 29%
    16:00 +32°C° 0 mm 8 m/s 759 mmHg 38%
    17:00 +28°C° 0 mm 9 m/s 759 mmHg 46%
    18:00 +24°C° 0 mm 11 m/s 759 mmHg 55%
    19:00 +24°C° 0 mm 10 m/s 760 mmHg 55%
    20:00 +23°C° 0 mm 9 m/s 760 mmHg 54%
    21:00 +23°C° 0 mm 8 m/s 761 mmHg 54%
    22:00 +22°C° 0 mm 7 m/s 761 mmHg 54%
    23:00 +22°C° 0 mm 6 m/s 761 mmHg 54%

    20 Septembrie, Vineri

    Timp Temperatura Precipitaţii Vânt Presiune Umiditate
    00:00 +22°C° 0 mm 5 m/s 761 mmHg 54%
    01:00 +21°C° 0 mm 5 m/s 760 mmHg 54%
    02:00 +21°C° 0 mm 4 m/s 760 mmHg 54%
    03:00 +20°C° 0 mm 3 m/s 760 mmHg 54%
    04:00 +20°C° 0 mm 3 m/s 760 mmHg 56%
    05:00 +20°C° 0 mm 2 m/s 759 mmHg 58%
    06:00 +20°C° 0 mm 2 m/s 759 mmHg 60%
    07:00 +21°C° 0 mm 2 m/s 759 mmHg 54%
    08:00 +24°C° 0 mm 2 m/s 759 mmHg 48%
    09:00 +25°C° 0 mm 2 m/s 759 mmHg 42%
    10:00 +26°C° 0 mm 2 m/s 758 mmHg 40%
    11:00 +27°C° 0 mm 2 m/s 758 mmHg 38%
    12:00 +29°C° 0 mm 2 m/s 757 mmHg 36%
    13:00 +29°C° 0 mm 2 m/s 756 mmHg 36%
    14:00 +29°C° 0 mm 2 m/s 756 mmHg 35%
    15:00 +30°C° 0 mm 2 m/s 755 mmHg 35%
    16:00 +28°C° 0 mm 3 m/s 755 mmHg 41%
    17:00 +27°C° 0 mm 4 m/s 755 mmHg 48%
    18:00 +25°C° 0 mm 5 m/s 754 mmHg 54%
    19:00 +23°C° 0 mm 4 m/s 754 mmHg 60%
    20:00 +22°C° 0 mm 3 m/s 754 mmHg 65%
    21:00 +23°C° 0 mm 2 m/s 754 mmHg 71%
    22:00 +21°C° 0 mm 2 m/s 754 mmHg 72%
    23:00 +21°C° 0 mm 2 m/s 754 mmHg 73%

    21 Septembrie, Sâmbătă

    Timp Temperatura Precipitaţii Vânt Presiune Umiditate
    00:00 +21°C° 0 mm 2 m/s 753 mmHg 74%
    01:00 +20°C° 0 mm 2 m/s 753 mmHg 74%
    02:00 +21°C° 0 mm 1 m/s 752 mmHg 74%
    03:00 +20°C° 0 mm 1 m/s 752 mmHg 75%
    04:00 +20°C° 0 mm 1 m/s 752 mmHg 75%
    05:00 +20°C° 0 mm 1 m/s 752 mmHg 76%
    06:00 +20°C° 0 mm 1 m/s 753 mmHg 77%
    07:00 +22°C° 0 mm 1 m/s 753 mmHg 69%
    08:00 +24°C° 0 mm 2 m/s 754 mmHg 62%
    09:00 +25°C° 0 mm 3 m/s 754 mmHg 54%
    10:00 +26°C° 0 mm 3 m/s 754 mmHg 50%
    11:00 +27°C° 0 mm 4 m/s 754 mmHg 45%
    12:00 +28°C° 0 mm 4 m/s 754 mmHg 41%
    13:00 +28°C° 0 mm 6 m/s 754 mmHg 41%
    14:00 +27°C° 0 mm 8 m/s 754 mmHg 40%
    15:00 +27°C° 0 mm 10 m/s 754 mmHg 40%
    16:00 +24°C° 0 mm 11 m/s 755 mmHg 45%
    17:00 +22°C° 0 mm 11 m/s 756 mmHg 50%
    18:00 +19°C° 0 mm 12 m/s 757 mmHg 54%
    19:00 +19°C° 0 mm 10 m/s 757 mmHg 55%
    20:00 +19°C° 0 mm 9 m/s 758 mmHg 55%
    21:00 +18°C° 0 mm 8 m/s 759 mmHg 56%
    22:00 +18°C° 0 mm 7 m/s 759 mmHg 54%
    23:00 +19°C° 0 mm 6 m/s 759 mmHg 53%
    Arată mai mult